EW9945 Weather Reports


time (UTC)temp
C
wind
direction
speed
KPH
gust
KPH
rain 1hr
cm
rain 24hr
cm
rain mn
cm
humidity
%
barometer
mb
20200531080507 7 303 1.6 6.4 0.00 0.00 0.00 88 1018.1
20200531080009 8 303 3.2 6.4 0.00 0.00 0.00 88 1018.1
20200531075011 8 303 3.2 6.4 0.00 0.00 0.00 90 1018.0
20200531074510 8 303 1.6 4.8 0.00 0.00 0.00 90 1018.0
20200531074015 8 303 1.6 4.8 0.00 0.00 0.00 90 1018.0
20200531073503 8 303 0.0 3.2 0.00 0.00 0.00 89 1017.9
20200531073003 8 303 0.0 6.4 0.00 0.00 0.00 90 1017.9
20200531072505 8 303 1.6 6.4 0.00 0.00 0.00 90 1017.9
20200531072002 8 303 1.6 6.4 0.00 0.00 0.00 90 1017.9
20200531071535 8 303 4.8 6.4 0.00 0.00 0.00 89 1017.9
20200531071006 8 303 4.8 6.4 0.00 0.00 0.00 89 1017.9
20200531070506 8 303 1.6 4.8 0.00 0.00 0.00 89 1017.9
20200531070001 8 303 1.6 4.8 0.00 0.00 0.00 89 1018.0
20200531065104 8 303 1.6 6.4 0.00 0.00 0.00 88 1017.9
20200531064734 8 303 1.6 6.4 0.00 0.00 0.00 88 1018.0
20200531064103 8 303 3.2 6.4 0.00 0.00 0.00 87 1018.0
20200531063603 8 303 3.2 8.0 0.00 0.00 0.00 87 1018.1
20200531063210 8 303 4.8 8.0 0.00 0.00 0.00 87 1018.1
20200531062557 8 303 3.2 6.4 0.00 0.00 0.00 87 1018.1
20200531062110 8 303 0.0 3.2 0.00 0.00 0.00 87 1018.1
20200531061635 8 303 0.0 4.8 0.00 0.00 0.00 86 1018.2
20200531061057 9 303 3.2 8.0 0.00 0.00 0.00 86 1018.2
20200531060604 8 303 3.2 8.0 0.00 0.00 0.00 86 1018.1
20200531060253 8 303 1.6 6.4 0.00 0.00 0.00 86 1018.0
20200531055107 9 303 0.0 1.6 0.00 0.00 0.00 84 1018.0
20200531054645 9 303 0.0 6.4 0.00 0.00 0.00 84 1017.8
20200531054055 9 303 1.6 6.4 0.00 0.00 0.00 85 1017.9
20200531053555 9 303 0.0 4.8 0.00 0.00 0.00 84 1017.9
20200531053217 9 303 0.0 6.4 0.00 0.00 0.00 85 1017.9
20200531052555 9 303 1.6 8.0 0.00 0.00 0.00 85 1017.9
20200531052057 8 304 3.2 8.0 0.00 0.00 0.00 86 1017.9
20200531051624 8 306 1.6 6.4 0.00 0.00 0.00 86 1017.9
20200531051059 8 307 0.0 6.4 0.00 0.00 0.00 86 1017.9
20200531050600 8 307 0.0 3.2 0.00 0.00 0.00 85 1017.8
20200531050128 9 307 0.0 3.2 0.00 0.00 0.00 84 1017.8
20200531045050 10 307 1.6 4.8 0.00 0.00 0.00 81 1017.9
20200531044624 10 307 1.6 4.8 0.00 0.00 0.00 81 1017.8
20200531044048 10 307 1.6 8.0 0.00 0.00 0.00 80 1017.9
20200531043547 10 307 1.6 11.3 0.00 0.00 0.00 80 1017.9
20200531043139 10 314 6.4 11.3 0.00 0.00 0.00 80 1018.0
20200531042607 10 304 4.8 9.7 0.00 0.00 0.00 80 1018.0
20200531042045 10 305 4.8 9.7 0.00 0.00 0.00 79 1018.0
20200531041718 10 298 6.4 9.7 0.00 0.00 0.00 79 1017.9
20200531041045 10 293 6.4 9.7 0.00 0.00 0.00 78 1017.8
20200531040543 10 298 6.4 11.3 0.00 0.00 0.00 78 1017.9
20200531040043 11 309 6.4 16.1 0.00 0.00 0.00 77 1017.9
20200531035041 11 331 6.4 17.7 0.00 0.00 0.00 77 1017.8
20200531034618 11 314 8.0 19.3 0.00 0.00 0.00 76 1017.8
20200531034040 11 313 9.7 19.3 0.00 0.00 0.00 76 1017.9
20200531033544 11 302 9.7 17.7 0.00 0.00 0.00 76 1017.8
20200531033141 11 303 8.0 17.7 0.00 0.00 0.00 75 1017.8
20200531032544 11 311 8.0 16.1 0.00 0.00 0.00 75 1017.8
20200531032036 11 313 9.7 20.9 0.00 0.00 0.00 74 1017.8
20200531031642 11 310 11.3 19.3 0.00 0.00 0.00 74 1017.7
20200531031035 11 311 11.3 17.7 0.00 0.00 0.00 74 1017.6
20200531030534 11 309 11.3 24.1 0.00 0.00 0.00 74 1017.7
20200531030037 11 311 11.3 24.1 0.00 0.00 0.00 74 1017.7
20200531025039 11 289 12.9 24.1 0.00 0.00 0.00 75 1017.7
20200531024605 11 314 11.3 17.7 0.00 0.00 0.00 75 1017.6
20200531024036 11 314 8.0 20.9 0.00 0.00 0.00 75 1017.6
20200531023542 11 333 11.3 20.9 0.00 0.00 0.00 75 1017.5
20200531023102 12 311 4.8 12.9 0.00 0.00 0.00 74 1017.5
20200531022529 12 300 4.8 12.9 0.00 0.00 0.00 74 1017.5
20200531022036 12 303 6.4 12.9 0.00 0.00 0.00 73 1017.4
20200531021629 12 305 4.8 12.9 0.00 0.00 0.00 72 1017.3
20200531021032 12 302 6.4 16.1 0.00 0.00 0.00 72 1017.2
20200531020528 12 302 9.7 16.1 0.00 0.00 0.00 71 1017.2
20200531020047 12 307 11.3 19.3 0.00 0.00 0.00 71 1017.0
20200531015026 12 302 12.9 24.1 0.00 0.00 0.00 70 1017.0
20200531014558 13 300 14.5 24.1 0.00 0.00 0.00 70 1016.9
20200531014025 13 290 16.1 27.4 0.00 0.00 0.00 69 1016.9
20200531013524 13 327 12.9 29.0 0.00 0.00 0.00 70 1016.8
20200531013135 13 327 17.7 29.0 0.00 0.00 0.00 69 1016.6
20200531012527 13 294 14.5 24.1 0.00 0.00 0.00 69 1016.6
20200531012044 13 305 11.3 24.1 0.00 0.00 0.00 68 1016.4
20200531011602 13 315 9.7 19.3 0.00 0.00 0.00 68 1016.3
20200531011020 13 343 11.3 24.1 0.00 0.00 0.00 66 1016.2
20200531010519 13 317 14.5 27.4 0.00 0.00 0.00 66 1016.0
20200531010034 14 313 16.1 27.4 0.00 0.00 0.00 65 1016.0
20200531005019 14 276 14.5 22.5 0.00 0.00 0.00 64 1015.7
20200531004541 14 284 14.5 24.1 0.00 0.00 0.00 64 1015.6
20200531004017 15 305 12.9 25.7 0.00 0.00 0.00 64 1015.6
20200531003517 15 308 16.1 32.2 0.00 0.00 0.00 64 1015.6
20200531003055 15 320 19.3 33.8 0.00 0.00 0.00 63 1015.6
20200531002521 15 336 19.3 33.8 0.00 0.00 0.00 63 1015.5
20200531002021 15 320 22.5 33.8 0.00 0.00 0.00 62 1015.3
20200531001551 15 311 12.9 27.4 0.00 0.00 0.00 61 1015.3
20200531001016 15 306 12.9 22.5 0.00 0.00 0.00 60 1015.2
20200531000517 15 327 11.3 30.6 0.00 0.08 0.00 60 1015.2
20200531000018 15 305 17.7 29.0 0.00 0.08 0.00 60 1015.1
20200530235013 16 302 14.5 30.6 0.00 0.08 0.00 60 1015.0
20200530234555 16 297 22.5 32.2 0.00 0.08 0.00 59 1014.9
20200530234012 16 316 17.7 35.4 0.00 0.08 0.00 60 1014.9
20200530233511 16 327 22.5 35.4 0.00 0.08 0.00 59 1014.8
20200530233019 16 309 22.5 33.8 0.00 0.08 0.00 58 1014.6
20200530232509 17 342 19.3 29.0 0.00 0.08 0.00 56 1014.6
20200530232010 17 317 16.1 27.4 0.00 0.08 0.00 53 1014.5
20200530231519 17 302 12.9 27.4 0.00 0.08 0.00 53 1014.3
20200530231015 17 313 16.1 30.6 0.00 0.08 0.00 53 1014.1
20200530230516 17 321 19.3 30.6 0.00 0.08 0.00 52 1014.0
20200530230013 17 326 16.1 29.0 0.00 0.08 0.00 52 1013.9
20200530225013 17 303 12.9 25.7 0.00 0.08 0.00 53 1013.6
20200530224515 17 323 14.5 20.9 0.00 0.08 0.00 53 1013.6
20200530224010 17 317 12.9 20.9 0.00 0.08 0.00 51 1013.4
20200530223510 18 313 14.5 29.0 0.00 0.08 0.00 51 1013.3
20200530223028 18 313 16.1 30.6 0.00 0.08 0.00 49 1013.2
20200530222509 18 296 19.3 30.6 0.00 0.08 0.00 48 1013.2
20200530222013 18 298 16.1 25.7 0.00 0.08 0.00 50 1013.1
20200530221510 18 309 17.7 33.8 0.00 0.08 0.00 51 1013.0
20200530221020 18 317 22.5 41.8 0.00 0.08 0.00 51 1012.8
20200530220509 18 310 24.1 35.4 0.00 0.08 0.00 48 1012.8
20200530220009 19 327 14.5 29.0 0.00 0.08 0.00 51 1013.0
20200530215009 19 355 17.7 32.2 0.00 0.08 0.00 50 1012.8
20200530214611 19 300 11.3 30.6 0.00 0.08 0.00 52 1012.8
20200530214014 19 317 16.1 30.6 0.00 0.08 0.00 50 1012.7
20200530213511 19 311 14.5 25.7 0.00 0.08 0.00 51 1012.8
20200530213036 19 317 19.3 25.7 0.00 0.08 0.00 52 1012.7
20200530212508 19 337 17.7 30.6 0.00 0.08 0.00 52 1012.6
20200530212009 19 309 19.3 30.6 0.00 0.08 0.00 52 1012.6
20200530211514 20 307 16.1 32.2 0.00 0.08 0.00 52 1012.5
20200530211011 20 286 20.9 33.8 0.00 0.08 0.00 53 1012.5
20200530210508 19 327 22.5 33.8 0.00 0.08 0.00 54 1012.4
20200530210018 19 338 24.1 32.2 0.00 0.08 0.00 55 1012.4
20200530205007 19 278 14.5 29.0 0.00 0.08 0.00 52 1012.3
20200530204544 20 327 17.7 32.2 0.00 0.08 0.00 50 1012.1
20200530204004 21 323 11.3 27.4 0.00 0.08 0.00 49 1012.2
20200530203507 21 311 4.8 17.7 0.00 0.08 0.00 52 1012.1
20200530203039 21 304 8.0 17.7 0.00 0.08 0.00 50 1012.2
20200530202504 21 82 3.2 25.7 0.00 0.08 0.00 52 1012.1
20200530202002 20 285 14.5 27.4 0.00 0.08 0.00 52 1012.2
20200530201511 20 182 11.3 24.1 0.00 0.08 0.00 53 1012.1
20200530201003 20 286 9.7 20.9 0.00 0.08 0.00 54 1012.2
20200530200502 20 315 12.9 29.0 0.00 0.08 0.00 54 1012.3
20200530200004 20 319 16.1 32.2 0.00 0.08 0.00 54 1012.2
20200530195502 20 317 8.0 20.9 0.00 0.08 0.00 56 1012.3
20200530195003 19 216 11.3 20.9 0.00 0.08 0.00 58 1012.3
20200530194503 18 339 9.7 20.9 0.00 0.08 0.00 58 1012.3
20200530194001 18 301 9.7 20.9 0.00 0.08 0.00 58 1012.3
20200530193501 18 309 11.3 27.4 0.00 0.08 0.00 57 1012.2
20200530193002 19 295 16.1 29.0 0.00 0.08 0.00 56 1012.2
20200530192001 20 305 16.1 29.0 0.00 0.08 0.00 54 1012.0
20200530191506 20 323 12.9 29.0 0.00 0.08 0.00 56 1012.1
20200530191005 20 302 12.9 22.5 0.00 0.08 0.00 54 1012.1
20200530190512 20 301 12.9 19.3 0.00 0.08 0.00 54 1012.1
20200530190002 20 317 11.3 25.7 0.00 0.08 0.00 52 1012.2
20200530185505 21 308 11.3 25.7 0.00 0.08 0.00 52 1012.1
20200530185002 20 294 4.8 17.7 0.00 0.08 0.00 57 1012.3
20200530184503 20 316 9.7 17.7 0.00 0.08 0.00 57 1012.3
20200530184002 20 313 8.0 25.7 0.00 0.08 0.00 57 1012.3
20200530183601 19 321 9.7 30.6 0.00 0.08 0.00 56 1012.4
20200530183500 20 302 11.3 30.6 0.00 0.08 0.00 56 1012.5
20200530183001 20 333 17.7 30.6 0.00 0.08 0.00 54 1012.4
20200530181947 18 325 17.7 29.0 0.00 0.08 0.00 59 1012.6
20200530181501 18 294 19.3 29.0 0.00 0.08 0.00 58 1012.6
20200530180501 19 323 19.3 33.8 0.00 0.08 0.00 60 1012.6
20200530180001 20 289 11.3 24.1 0.00 0.08 0.00 61 1012.6
20200530175621 20 283 16.1 24.1 0.00 0.08 0.00 57 1012.6
20200530175125 19 327 12.9 24.1 0.00 0.08 0.00 60 1012.6
20200530174704 19 311 14.5 24.1 0.00 0.08 0.00 60 1012.7
20200530174104 19 310 9.7 22.5 0.00 0.08 0.00 61 1012.7
20200530173600 18 334 9.7 25.7 0.00 0.08 0.00 63 1012.8
20200530173202 19 288 9.7 24.1 0.00 0.08 0.00 63 1012.9
20200530172600 18 306 16.1 29.0 0.00 0.08 0.00 65 1012.9
20200530172058 18 323 14.5 29.0 0.00 0.08 0.00 64 1012.8
20200530171813 18 297 16.1 29.0 0.00 0.08 0.00 63 1012.9
20200530171100 18 302 11.3 30.6 0.00 0.08 0.00 62 1012.9
20200530170637 18 305 16.1 30.6 0.00 0.08 0.00 60 1012.9
20200530170144 19 320 6.4 27.4 0.00 0.08 0.00 60 1012.8
20200530165558 19 284 12.9 32.2 0.00 0.08 0.00 60 1012.9
20200530165058 19 311 16.1 33.8 0.00 0.08 0.00 59 1012.8
20200530164714 19 304 17.7 33.8 0.00 0.08 0.00 59 1012.8
20200530164058 20 327 14.5 25.7 0.00 0.08 0.00 57 1012.8
20200530163558 20 317 6.4 16.1 0.00 0.08 0.00 57 1012.8
20200530163209 20 266 3.2 16.1 0.00 0.08 0.00 56 1012.7
20200530162059 20 315 12.9 19.3 0.00 0.08 0.00 54 1012.7
20200530161623 20 325 8.0 27.4 0.00 0.08 0.00 56 1012.7
20200530161102 20 316 11.3 27.4 0.00 0.08 0.00 56 1012.8
20200530160556 20 316 4.8 17.7 0.00 0.08 0.00 55 1012.9
20200530160136 21 319 1.6 11.3 0.00 0.08 0.00 56 1013.0
20200530155604 20 336 1.6 11.3 0.00 0.08 0.00 56 1012.9
20200530155056 20 173 1.6 4.8 0.00 0.08 0.00 57 1012.9
20200530154740 20 53 0.0 11.3 0.00 0.08 0.00 56 1013.0
20200530154110 20 315 1.6 17.7 0.00 0.08 0.00 54 1013.0
20200530153554 20 302 3.2 11.3 0.00 0.08 0.00 57 1013.1
20200530153130 20 124 4.8 8.0 0.00 0.08 0.00 59 1013.1
20200530152552 19 327 1.6 14.5 0.00 0.08 0.00 60 1013.3
20200530152052 19 227 0.0 14.5 0.00 0.08 0.00 60 1013.3
20200530151612 19 295 4.8 14.5 0.00 0.08 0.00 61 1013.4
20200530151053 19 116 4.8 14.5 0.00 0.08 0.00 59 1013.4
20200530150553 19 319 8.0 17.7 0.00 0.08 0.00 60 1013.5
20200530150209 19 338 4.8 16.1 0.00 0.08 0.00 57 1013.3
20200530145554 19 321 4.8 17.7 0.00 0.08 0.00 59 1013.5
20200530145049 19 315 11.3 17.7 0.00 0.08 0.00 57 1013.4
20200530144702 19 167 1.6 16.1 0.00 0.08 0.00 60 1013.6
20200530144048 19 313 1.6 16.1 0.00 0.08 0.00 61 1013.6
20200530143548 18 313 3.2 14.5 0.00 0.08 0.00 61 1013.5
20200530143053 18 278 8.0 19.3 0.00 0.08 0.00 60 1013.5
20200530142547 18 313 8.0 17.7 0.00 0.08 0.00 61 1013.7
20200530142049 18 329 8.0 17.7 0.00 0.08 0.00 61 1013.7
20200530141617 18 315 8.0 16.1 0.00 0.08 0.00 62 1013.7
20200530141052 18 300 9.7 16.1 0.00 0.08 0.00 62 1013.7
20200530140601 18 360 9.7 17.7 0.00 0.08 0.00 62 1013.9
20200530140123 18 346 6.4 16.1 0.00 0.08 0.00 63 1013.9
20200530135547 18 323 8.0 14.5 0.00 0.08 0.00 62 1014.0
20200530135048 18 327 6.4 14.5 0.00 0.08 0.00 63 1014.1
20200530134713 18 333 4.8 11.3 0.00 0.08 0.00 62 1014.3
20200530134053 18 325 6.4 11.3 0.00 0.08 0.00 60 1014.2
20200530133546 19 340 6.4 11.3 0.00 0.08 0.00 60 1014.3
20200530133126 18 344 1.6 9.7 0.00 0.08 0.00 62 1014.3
20200530132545 18 344 4.8 12.9 0.00 0.08 0.00 61 1014.3
20200530132044 18 344 6.4 12.9 0.00 0.08 0.00 60 1014.3
20200530131614 18 333 3.2 9.7 0.00 0.08 0.00 62 1014.3
20200530131041 18 333 1.6 8.0 0.00 0.08 0.00 62 1014.2
20200530130542 18 333 0.0 8.0 0.00 0.08 0.00 63 1014.2
20200530130113 18 333 3.2 8.0 0.00 0.08 0.00 63 1014.2
20200530125554 17 317 0.0 6.4 0.00 0.08 0.00 65 1014.3
20200530125036 17 317 0.0 3.2 0.00 0.08 0.00 67 1014.4
20200530124622 16 317 0.0 6.4 0.00 0.08 0.00 69 1014.4
20200530124035 16 319 0.0 9.7 0.00 0.08 0.00 71 1014.5
20200530123534 15 311 4.8 9.7 0.00 0.08 0.00 71 1014.5
20200530123059 16 311 0.0 4.8 0.00 0.08 0.00 72 1014.5
20200530122534 16 311 4.8 8.0 0.00 0.08 0.00 71 1014.6
20200530122034 16 311 4.8 8.0 0.00 0.08 0.00 71 1014.5
20200530121555 15 311 0.0 8.0 0.00 0.08 0.00 76 1014.5
20200530121033 14 311 3.2 9.7 0.00 0.08 0.00 76 1014.5
20200530120533 14 308 4.8 9.7 0.00 0.08 0.00 76 1014.4
20200530120114 14 317 6.4 9.7 0.00 0.08 0.00 77 1014.4
20200530115532 14 304 3.2 8.0 0.00 0.08 0.00 77 1014.3
20200530115037 13 305 4.8 9.7 0.00 0.08 0.00 76 1014.2
20200530114534 14 307 4.8 9.7 0.00 0.08 0.00 76 1014.1
20200530114034 13 311 0.0 8.0 0.00 0.08 0.00 79 1014.0
20200530113552 13 311 4.8 8.0 0.00 0.08 0.00 78 1014.0
20200530113034 13 305 1.6 9.7 0.00 0.08 0.00 78 1014.1
20200530112537 14 310 3.2 8.0 0.00 0.08 0.00 78 1014.2
20200530112029 14 310 3.2 8.0 0.00 0.08 0.00 77 1014.1
20200530111606 14 297 1.6 6.4 0.00 0.08 0.00 79 1014.1
20200530111029 14 293 1.6 4.8 0.00 0.08 0.00 80 1014.1
20200530110528 14 293 0.0 1.6 0.00 0.46 0.00 84 1014.1
20200530110100 13 293 0.0 1.6 0.00 0.46 0.00 86 1014.1
20200530105528 13 293 0.0 1.6 0.00 0.46 0.00 87 1014.2
20200530105031 13 293 0.0 0.0 0.00 0.46 0.00 87 1014.1
20200530104554 12 293 0.0 0.0 0.00 0.46 0.00 88 1014.1
20200530104115 12 293 0.0 1.6 0.00 0.46 0.00 88 1014.1
20200530103527 12 293 0.0 1.6 0.00 0.46 0.00 88 1014.1
20200530103120 12 293 0.0 0.0 0.00 0.46 0.00 87 1014.0
20200530102526 12 293 0.0 3.2 0.00 0.46 0.00 86 1013.8
20200530102029 12 293 0.0 3.2 0.00 0.46 0.00 86 1013.8
20200530101541 12 293 0.0 8.0 0.00 0.46 0.00 85 1013.7
20200530101025 12 293 4.8 8.0 0.00 0.46 0.00 86 1013.6
20200530100531 12 301 4.8 9.7 0.00 0.46 0.00 86 1013.6
20200530100036 12 302 4.8 14.5 0.00 0.46 0.00 86 1013.5
20200530095527 12 306 6.4 14.5 0.00 0.46 0.00 86 1013.5
20200530095036 12 309 6.4 14.5 0.00 0.46 0.00 86 1013.4
20200530094533 12 284 8.0 14.5 0.00 0.46 0.00 86 1013.4
20200530094021 12 302 8.0 12.9 0.00 0.46 0.00 87 1013.3
20200530093519 12 296 6.4 11.3 0.00 0.46 0.00 87 1013.2
20200530093030 12 298 6.4 11.3 0.00 0.46 0.00 87 1013.2
20200530092522 12 297 4.8 9.7 0.00 0.46 0.00 87 1013.1
20200530092024 12 296 4.8 9.7 0.00 0.46 0.00 87 1013.1
20200530091611 12 297 4.8 8.0 0.00 0.46 0.00 87 1013.1
20200530091017 12 303 3.2 8.0 0.00 0.46 0.00 87 1012.9
20200530090517 12 302 0.0 8.0 0.00 0.46 0.00 86 1012.9
20200530090026 12 296 6.4 9.7 0.00 0.46 0.00 86 1012.9
20200530085520 12 288 4.8 11.3 0.00 0.46 0.00 85 1012.9
20200530085016 12 297 6.4 11.3 0.00 0.46 0.00 85 1012.8
20200530084525 12 297 4.8 16.1 0.00 0.46 0.00 85 1012.7
20200530084015 12 329 6.4 14.5 0.00 0.46 0.00 85 1012.7
20200530083515 12 303 1.6 8.0 0.00 0.46 0.00 85 1012.6
20200530083057 12 307 3.2 11.3 0.00 0.46 0.00 85 1012.6
20200530082516 13 303 6.4 14.5 0.00 0.46 0.00 84 1012.6
20200530082015 13 294 6.4 14.5 0.00 0.46 0.00 85 1012.5
20200530081511 12 302 6.4 14.5 0.00 0.46 0.00 85 1012.5
20200530081007 13 305 3.2 8.0 0.00 0.46 0.00 85 1012.5